Eufaula, AL

5:57 AM CDT on May 26, 2017 (GMT -0500)
Weedon

Weather History for KEUF - September, 2012

Change the Weather History Date:

Wednesday, September 12, 2012

  Actual Average (KLSF) Record (KLSF)
Temperature  
Mean Temperature 78 °F -  
Max Temperature 87 °F 84 °F 98 °F (2010)
Min Temperature 68 °F 62 °F 57 °F (2011)
Cooling Degree Days 12    
Growing Degree Days 28 (Base 50)    
Moisture  
Dew Point 60 °F    
Average Humidity 59    
Maximum Humidity 78    
Minimum Humidity 31    
Precipitation  
Precipitation 0.00 in - - ()
Sea Level Pressure  
Sea Level Pressure 30.19 in    
Wind  
Wind Speed 5 mph (East)    
Max Wind Speed 12 mph    
Max Gust Speed -    
Visibility 10 miles    
Events      
Averages and records for this station are not official NWS values.
T = Trace of Precipitation, MM = Missing Value Source: NWS Daily Summary

Daily Weather History Graph

Daily Weather History Graph

Search for Another Location

Airport or City:

Trip Planner

Search our weather history database for the weather conditions in past years. The results will help you decide how hot, cold, wet, or windy it might be!

Date:

Astronomy

Sep. 12, 2012 Rise Set
Actual Time 6:22 AM CDT 6:49 PM CDT
Civil Twilight 5:58 AM CDT 7:14 PM CDT
Nautical Twilight 5:29 AM CDT 7:42 PM CDT
Astronomical Twilight 5:00 AM CDT 8:12 PM CDT
Moon 2:49 AM CDT (9/12) 4:28 PM CDT (9/12)
Length of Visible Light 13h 15m
Length of Day
12h 26m
Waning Crescent, 13% of the Moon is Illuminated
Sep 12
Waning Crescent
Sep 15
New
Sep 22
First Quarter
Sep 29
Full
Oct 8
Last Quarter

Hourly Weather History & Observations

Time (CDT) Temp. Heat Index Dew Point Humidity Pressure Visibility Wind Dir Wind Speed Gust Speed Precip Events Conditions
12:58 AM 72.0 °F - 62.1 °F 71% 30.19 in 10.0 mi ESE 4.6 mph - N/A   Clear
1:58 AM 71.1 °F - 61.0 °F 70% 30.18 in 10.0 mi ESE 4.6 mph - N/A   Clear
2:58 AM 69.1 °F - 61.0 °F 75% 30.17 in 10.0 mi East 4.6 mph - N/A   Clear
3:58 AM 68.0 °F - 61.0 °F 78% 30.17 in 10.0 mi ENE 5.8 mph - N/A   Clear
4:58 AM 68.0 °F - 61.0 °F 78% 30.19 in 10.0 mi East 5.8 mph - N/A   Clear
5:58 AM 68.0 °F - 61.0 °F 78% 30.21 in 10.0 mi East 4.6 mph - N/A   Partly Cloudy
6:58 AM 69.1 °F - 61.0 °F 75% 30.23 in 10.0 mi East 4.6 mph - N/A   Overcast
7:58 AM 71.1 °F - 60.1 °F 68% 30.24 in 10.0 mi East 5.8 mph - N/A   Overcast
8:58 AM 73.9 °F - 61.0 °F 64% 30.25 in 10.0 mi East 8.1 mph - N/A   Mostly Cloudy
9:58 AM 79.0 °F - 60.1 °F 52% 30.26 in 10.0 mi East 8.1 mph - N/A   Clear
10:58 AM 82.0 °F 82.4 °F 60.1 °F 47% 30.25 in 10.0 mi NE 11.5 mph - N/A   Clear
11:58 AM 86.0 °F 84.9 °F 57.0 °F 37% 30.24 in 10.0 mi East 8.1 mph - N/A   Clear
12:58 PM 86.0 °F 84.5 °F 55.0 °F 35% 30.21 in 10.0 mi East 9.2 mph - N/A   Clear
1:58 PM 87.1 °F 84.9 °F 53.1 °F 31% 30.19 in 10.0 mi ENE 6.9 mph - N/A   Clear
2:58 PM 86.0 °F 84.5 °F 55.0 °F 35% 30.17 in 10.0 mi ENE 5.8 mph - N/A   Clear
3:58 PM 86.0 °F 85.7 °F 60.1 °F 41% 30.16 in 10.0 mi East 9.2 mph - N/A   Mostly Cloudy
4:58 PM 84.9 °F 85.4 °F 62.1 °F 46% 30.15 in 10.0 mi East 4.6 mph - N/A   Partly Cloudy
5:58 PM 81.0 °F 81.7 °F 61.0 °F 50% 30.15 in 10.0 mi East 3.5 mph - N/A   Clear
6:58 PM 75.9 °F - 64.0 °F 67% 30.15 in 10.0 mi Calm Calm - N/A   Scattered Clouds
7:58 PM 75.9 °F - 64.0 °F 67% 30.16 in 10.0 mi NE 3.5 mph - N/A   Overcast
8:58 PM 75.9 °F - 62.1 °F 62% 30.17 in 10.0 mi NE 3.5 mph - N/A   Mostly Cloudy
9:58 PM 75.9 °F - 61.0 °F 60% 30.19 in 10.0 mi Calm Calm - N/A   Overcast
10:58 PM 75.9 °F - 61.0 °F 60% 30.19 in 10.0 mi ENE 4.6 mph - N/A   Overcast
11:58 PM 75.0 °F - 60.1 °F 60% 30.20 in 10.0 mi East 5.8 mph - N/A   Overcast